Year,Month,Day,Hour,Minute,Value (Times are PST for windgust in km/hr)
2016,02,25,00,05,1.60
2016,02,25,00,06,1.60
2016,02,25,00,09,1.60
2016,02,25,01,34,3.20
2016,02,25,01,35,3.20
2016,02,25,01,45,1.60
2016,02,25,01,48,1.60
2016,02,25,02,02,1.60
2016,02,25,02,03,1.60
2016,02,25,02,07,1.60
2016,02,25,02,08,1.60
2016,02,25,02,24,3.20
2016,02,25,02,25,3.20
2016,02,25,02,26,3.20
2016,02,25,02,27,4.80
2016,02,25,02,28,3.20
2016,02,25,02,29,1.60
2016,02,25,02,30,1.60
2016,02,25,02,31,1.60
2016,02,25,02,32,1.60
2016,02,25,02,53,1.60
2016,02,25,02,54,1.60
2016,02,25,02,55,1.60
2016,02,25,04,33,1.60
2016,02,25,04,35,1.60
2016,02,25,04,36,3.20
2016,02,25,04,37,3.20
2016,02,25,04,38,3.20
2016,02,25,04,39,3.20
2016,02,25,04,40,1.60
2016,02,25,04,41,1.60
2016,02,25,04,55,1.60
2016,02,25,04,56,1.60
2016,02,25,04,57,1.60
2016,02,25,05,05,3.20
2016,02,25,05,06,3.20
2016,02,25,05,07,3.20
2016,02,25,05,08,1.60
2016,02,25,05,10,3.20
2016,02,25,05,17,3.20
2016,02,25,05,18,1.60
2016,02,25,05,19,1.60
2016,02,25,05,42,3.20
2016,02,25,05,43,1.60
2016,02,25,05,44,1.60
2016,02,25,05,45,1.60
2016,02,25,05,46,3.20
2016,02,25,05,47,1.60
2016,02,25,05,48,1.60
2016,02,25,05,55,1.60
2016,02,25,05,56,1.60
2016,02,25,05,59,1.60
2016,02,25,06,00,1.60
2016,02,25,06,01,3.20
2016,02,25,06,02,3.20
2016,02,25,06,13,1.60
2016,02,25,06,14,3.20
2016,02,25,06,15,4.80
2016,02,25,06,16,4.80
2016,02,25,06,17,3.20
2016,02,25,06,18,1.60
2016,02,25,06,19,3.20
2016,02,25,06,20,1.60
2016,02,25,06,23,1.60
2016,02,25,06,28,1.60
2016,02,25,06,34,3.20
2016,02,25,06,35,3.20
2016,02,25,06,36,3.20
2016,02,25,06,37,3.20
2016,02,25,06,38,1.60
2016,02,25,06,39,1.60
2016,02,25,06,40,3.20
2016,02,25,06,41,3.20
2016,02,25,06,42,4.80
2016,02,25,06,43,3.20
2016,02,25,06,44,6.40
2016,02,25,06,45,4.80
2016,02,25,06,46,4.80
2016,02,25,06,47,3.20
2016,02,25,06,48,3.20
2016,02,25,06,49,3.20
2016,02,25,06,50,4.80
2016,02,25,06,51,3.20
2016,02,25,06,52,3.20
2016,02,25,06,53,1.60
2016,02,25,06,54,3.20
2016,02,25,06,55,3.20
2016,02,25,06,56,1.60
2016,02,25,07,02,1.60
2016,02,25,07,03,1.60
2016,02,25,07,04,4.80
2016,02,25,07,05,4.80
2016,02,25,07,06,3.20
2016,02,25,07,07,3.20
2016,02,25,07,12,1.60
2016,02,25,07,13,1.60
2016,02,25,07,14,3.20
2016,02,25,07,15,1.60
2016,02,25,07,45,1.60
2016,02,25,07,46,1.60
2016,02,25,07,47,3.20
2016,02,25,07,48,1.60
2016,02,25,07,49,1.60
2016,02,25,07,50,1.60
2016,02,25,07,51,3.20
2016,02,25,07,52,4.80
2016,02,25,07,53,1.60
2016,02,25,07,54,1.60
2016,02,25,07,55,3.20
2016,02,25,07,56,4.80
2016,02,25,07,57,4.80
2016,02,25,07,58,3.20
2016,02,25,07,59,1.60
2016,02,25,08,00,3.20
2016,02,25,08,01,3.20
2016,02,25,08,02,6.40
2016,02,25,08,03,4.80
2016,02,25,08,04,6.40
2016,02,25,08,05,6.40
2016,02,25,08,06,6.40
2016,02,25,08,07,4.80
2016,02,25,08,08,6.40
2016,02,25,08,09,6.40
2016,02,25,08,10,4.80
2016,02,25,08,11,6.40
2016,02,25,08,12,4.80
2016,02,25,08,13,4.80
2016,02,25,08,14,9.60
2016,02,25,08,15,9.60
2016,02,25,08,16,4.80
2016,02,25,08,17,6.40
2016,02,25,08,18,4.80
2016,02,25,08,19,9.60
2016,02,25,08,20,6.40
2016,02,25,08,21,8.10
2016,02,25,08,22,14.50
2016,02,25,08,23,9.60
2016,02,25,08,24,8.10
2016,02,25,08,25,9.60
2016,02,25,08,26,11.30
2016,02,25,08,27,11.30
2016,02,25,08,28,9.60
2016,02,25,08,29,11.30
2016,02,25,08,30,16.10
2016,02,25,08,31,9.60
2016,02,25,08,32,11.30
2016,02,25,08,33,9.60
2016,02,25,08,34,9.60
2016,02,25,08,35,9.60
2016,02,25,08,36,11.30
2016,02,25,08,37,16.10
2016,02,25,08,38,14.50
2016,02,25,08,39,9.60
2016,02,25,08,40,9.60
2016,02,25,08,41,8.10
2016,02,25,08,42,6.40
2016,02,25,08,43,6.40
2016,02,25,08,44,9.60
2016,02,25,08,45,6.40
2016,02,25,08,46,11.30
2016,02,25,08,47,6.40
2016,02,25,08,48,9.60
2016,02,25,08,49,17.70
2016,02,25,08,50,14.50
2016,02,25,08,51,11.30
2016,02,25,08,52,8.10
2016,02,25,08,53,14.50
2016,02,25,08,54,14.50
2016,02,25,08,55,11.30
2016,02,25,08,56,11.30
2016,02,25,08,57,11.30
2016,02,25,08,58,14.50
2016,02,25,08,59,12.90
2016,02,25,09,00,11.30
2016,02,25,09,01,8.10
2016,02,25,09,02,9.60
2016,02,25,09,03,9.60
2016,02,25,09,04,9.60
2016,02,25,09,05,6.40
2016,02,25,09,06,9.60
2016,02,25,09,07,9.60
2016,02,25,09,08,9.60
2016,02,25,09,09,8.10
2016,02,25,09,10,8.10
2016,02,25,09,11,8.10
2016,02,25,09,12,8.10
2016,02,25,09,13,11.30
2016,02,25,09,14,11.30
2016,02,25,09,15,9.60
2016,02,25,09,16,9.60
2016,02,25,09,17,9.60
2016,02,25,09,18,9.60
2016,02,25,09,19,9.60
2016,02,25,09,20,9.60
2016,02,25,09,21,11.30
2016,02,25,09,22,12.90
2016,02,25,09,23,14.50
2016,02,25,09,24,11.30
2016,02,25,09,25,8.10
2016,02,25,09,26,9.60
2016,02,25,09,27,14.50
2016,02,25,09,28,16.10
2016,02,25,09,29,14.50
2016,02,25,09,30,9.60
2016,02,25,09,31,9.60
2016,02,25,09,32,8.10
2016,02,25,09,33,9.60
2016,02,25,09,34,9.60
2016,02,25,09,35,9.60
2016,02,25,09,36,11.30
2016,02,25,09,37,11.30
2016,02,25,09,38,9.60
2016,02,25,09,39,11.30
2016,02,25,09,40,12.90
2016,02,25,09,41,14.50
2016,02,25,09,42,9.60
2016,02,25,09,43,9.60
2016,02,25,09,44,14.50
2016,02,25,09,45,14.50
2016,02,25,09,46,16.10
2016,02,25,09,47,17.70
2016,02,25,09,48,16.10
2016,02,25,09,49,9.60
2016,02,25,09,50,19.30
2016,02,25,09,51,14.50
2016,02,25,09,52,14.50
2016,02,25,09,53,16.10
2016,02,25,09,54,16.10
2016,02,25,09,55,16.10
2016,02,25,09,56,14.50
2016,02,25,09,57,17.70
2016,02,25,09,58,11.30
2016,02,25,09,59,16.10
2016,02,25,10,00,11.30
2016,02,25,10,01,12.90
2016,02,25,10,02,14.50
2016,02,25,10,03,12.90
2016,02,25,10,04,16.10
2016,02,25,10,05,9.60
2016,02,25,10,06,9.60
2016,02,25,10,07,14.50
2016,02,25,10,08,12.90
2016,02,25,10,09,6.40
2016,02,25,10,10,6.40
2016,02,25,10,11,9.60
2016,02,25,10,12,17.70
2016,02,25,10,13,19.30
2016,02,25,10,14,11.30
2016,02,25,10,15,14.50
2016,02,25,10,16,3.20
2016,02,25,10,17,4.80
2016,02,25,10,18,11.30
2016,02,25,10,19,3.20
2016,02,25,10,20,6.40
2016,02,25,10,21,19.30
2016,02,25,10,22,19.30
2016,02,25,10,23,19.30
2016,02,25,10,24,14.50
2016,02,25,10,25,14.50
2016,02,25,10,26,11.30
2016,02,25,10,27,11.30
2016,02,25,10,28,16.10
2016,02,25,10,29,12.90
2016,02,25,10,30,8.10
2016,02,25,10,31,8.10
2016,02,25,10,32,4.80
2016,02,25,10,33,9.60
2016,02,25,10,34,6.40
2016,02,25,10,35,8.10
2016,02,25,10,36,8.10
2016,02,25,10,37,9.60
2016,02,25,10,38,4.80
2016,02,25,10,39,6.40
2016,02,25,10,40,8.10
2016,02,25,10,41,14.50
2016,02,25,10,42,12.90
2016,02,25,10,43,6.40
2016,02,25,10,44,8.10
2016,02,25,10,45,8.10
2016,02,25,10,46,14.50
2016,02,25,10,47,11.30
2016,02,25,10,48,11.30
2016,02,25,10,49,11.30
2016,02,25,10,50,16.10
2016,02,25,10,51,12.90
2016,02,25,10,52,16.10
2016,02,25,10,53,11.30
2016,02,25,10,54,14.50
2016,02,25,10,55,9.60
2016,02,25,10,56,11.30
2016,02,25,10,57,11.30
2016,02,25,10,58,11.30
2016,02,25,10,59,12.90
2016,02,25,11,00,9.60
2016,02,25,11,01,8.10
2016,02,25,11,02,3.20
2016,02,25,11,03,8.10
2016,02,25,11,04,9.60
2016,02,25,11,05,11.30
2016,02,25,11,06,14.50
2016,02,25,11,07,16.10
2016,02,25,11,08,11.30
2016,02,25,11,09,9.60
2016,02,25,11,10,8.10
2016,02,25,11,11,11.30
2016,02,25,11,12,9.60
2016,02,25,11,13,14.50
2016,02,25,11,14,11.30
2016,02,25,11,15,9.60
2016,02,25,11,16,9.60
2016,02,25,11,17,9.60
2016,02,25,11,18,6.40
2016,02,25,11,19,8.10
2016,02,25,11,20,9.60
2016,02,25,11,21,6.40
2016,02,25,11,22,9.60
2016,02,25,11,23,9.60
2016,02,25,11,24,9.60
2016,02,25,11,25,11.30
2016,02,25,11,26,11.30
2016,02,25,11,27,9.60
2016,02,25,11,28,8.10
2016,02,25,11,29,8.10
2016,02,25,11,30,17.70
2016,02,25,11,31,14.50
2016,02,25,11,32,8.10
2016,02,25,11,33,11.30
2016,02,25,11,34,11.30
2016,02,25,11,35,9.60
2016,02,25,11,36,3.20
2016,02,25,11,37,11.30
2016,02,25,11,38,11.30
2016,02,25,11,39,11.30
2016,02,25,11,40,4.80
2016,02,25,11,41,6.40
2016,02,25,11,42,9.60
2016,02,25,11,43,4.80
2016,02,25,11,44,11.30
2016,02,25,11,45,11.30
2016,02,25,11,46,8.10
2016,02,25,11,47,4.80
2016,02,25,11,48,9.60
2016,02,25,11,49,6.40
2016,02,25,11,50,11.30
2016,02,25,11,51,9.60
2016,02,25,11,52,9.60
2016,02,25,11,53,11.30
2016,02,25,11,54,6.40
2016,02,25,11,55,6.40
2016,02,25,11,56,8.10
2016,02,25,11,57,14.50
2016,02,25,11,58,16.10
2016,02,25,11,59,8.10
2016,02,25,12,00,6.40
2016,02,25,12,01,8.10
2016,02,25,12,02,9.60
2016,02,25,12,03,9.60
2016,02,25,12,04,6.40
2016,02,25,12,05,9.60
2016,02,25,12,06,6.40
2016,02,25,12,07,11.30
2016,02,25,12,08,8.10
2016,02,25,12,09,4.80
2016,02,25,12,10,6.40
2016,02,25,12,11,9.60
2016,02,25,12,12,16.10
2016,02,25,12,13,9.60
2016,02,25,12,14,4.80
2016,02,25,12,15,4.80
2016,02,25,12,16,11.30
2016,02,25,12,17,6.40
2016,02,25,12,18,6.40
2016,02,25,12,19,9.60
2016,02,25,12,20,9.60
2016,02,25,12,21,6.40
2016,02,25,12,22,6.40
2016,02,25,12,23,6.40
2016,02,25,12,24,6.40
2016,02,25,12,25,8.10
2016,02,25,12,26,12.90
2016,02,25,12,27,9.60
2016,02,25,12,28,8.10
2016,02,25,12,29,11.30
2016,02,25,12,30,11.30
2016,02,25,12,31,9.60
2016,02,25,12,32,16.10
2016,02,25,12,33,12.90
2016,02,25,12,34,8.10
2016,02,25,12,35,8.10
2016,02,25,12,36,11.30
2016,02,25,12,37,8.10
2016,02,25,12,38,9.60
2016,02,25,12,39,11.30
2016,02,25,12,40,8.10
2016,02,25,12,41,8.10
2016,02,25,12,42,4.80
2016,02,25,12,43,4.80
2016,02,25,12,44,6.40
2016,02,25,12,45,6.40
2016,02,25,12,46,11.30
2016,02,25,12,47,4.80
2016,02,25,12,48,4.80
2016,02,25,12,49,11.30
2016,02,25,12,50,9.60
2016,02,25,12,51,3.20
2016,02,25,12,52,6.40
2016,02,25,12,53,4.80
2016,02,25,12,54,16.10
2016,02,25,12,55,4.80
2016,02,25,12,56,4.80
2016,02,25,12,57,9.60
2016,02,25,12,58,3.20
2016,02,25,12,59,4.80
2016,02,25,13,00,6.40
2016,02,25,13,01,8.10
2016,02,25,13,02,8.10
2016,02,25,13,03,8.10
2016,02,25,13,04,9.60
2016,02,25,13,05,6.40
2016,02,25,13,06,6.40
2016,02,25,13,07,6.40
2016,02,25,13,08,4.80
2016,02,25,13,09,6.40
2016,02,25,13,10,6.40
2016,02,25,13,11,4.80
2016,02,25,13,12,4.80
2016,02,25,13,13,9.60
2016,02,25,13,14,9.60
2016,02,25,13,15,11.30
2016,02,25,13,16,12.90
2016,02,25,13,17,14.50
2016,02,25,13,18,8.10
2016,02,25,13,19,8.10
2016,02,25,13,20,8.10
2016,02,25,13,21,6.40
2016,02,25,13,22,6.40
2016,02,25,13,23,6.40
2016,02,25,13,24,6.40
2016,02,25,13,25,3.20
2016,02,25,13,26,6.40
2016,02,25,13,27,9.60
2016,02,25,13,28,8.10
2016,02,25,13,29,16.10
2016,02,25,13,30,11.30
2016,02,25,13,31,6.40
2016,02,25,13,32,11.30
2016,02,25,13,33,8.10
2016,02,25,13,34,3.20
2016,02,25,13,35,6.40
2016,02,25,13,36,6.40
2016,02,25,13,37,6.40
2016,02,25,13,38,6.40
2016,02,25,13,39,6.40
2016,02,25,13,40,9.60
2016,02,25,13,41,9.60
2016,02,25,13,42,16.10
2016,02,25,13,43,9.60
2016,02,25,13,44,9.60
2016,02,25,13,45,9.60
2016,02,25,13,46,11.30
2016,02,25,13,47,12.90
2016,02,25,13,48,16.10
2016,02,25,13,49,11.30
2016,02,25,13,50,11.30
2016,02,25,13,51,11.30
2016,02,25,13,52,8.10
2016,02,25,13,53,12.90
2016,02,25,13,54,11.30
2016,02,25,13,55,11.30
2016,02,25,13,56,8.10
2016,02,25,13,57,9.60
2016,02,25,13,58,14.50
2016,02,25,13,59,11.30
2016,02,25,14,00,9.60
2016,02,25,14,01,8.10
2016,02,25,14,02,8.10
2016,02,25,14,03,8.10
2016,02,25,14,04,9.60
2016,02,25,14,05,6.40
2016,02,25,14,06,8.10
2016,02,25,14,07,9.60
2016,02,25,14,08,14.50
2016,02,25,14,09,11.30
2016,02,25,14,10,11.30
2016,02,25,14,11,8.10
2016,02,25,14,12,9.60
2016,02,25,14,13,9.60
2016,02,25,14,14,11.30
2016,02,25,14,15,11.30
2016,02,25,14,16,16.10
2016,02,25,14,17,4.80
2016,02,25,14,18,8.10
2016,02,25,14,19,4.80
2016,02,25,14,20,11.30
2016,02,25,14,21,11.30
2016,02,25,14,22,9.60
2016,02,25,14,23,16.10
2016,02,25,14,24,6.40
2016,02,25,14,25,8.10
2016,02,25,14,26,11.30
2016,02,25,14,27,11.30
2016,02,25,14,28,16.10
2016,02,25,14,29,11.30
2016,02,25,14,30,9.60
2016,02,25,14,31,6.40
2016,02,25,14,32,9.60
2016,02,25,14,33,17.70
2016,02,25,14,34,12.90
2016,02,25,14,35,14.50
2016,02,25,14,36,14.50
2016,02,25,14,37,9.60
2016,02,25,14,38,16.10
2016,02,25,14,39,14.50
2016,02,25,14,40,11.30
2016,02,25,14,41,14.50
2016,02,25,14,42,9.60
2016,02,25,14,43,11.30
2016,02,25,14,44,12.90
2016,02,25,14,45,11.30
2016,02,25,14,46,9.60
2016,02,25,14,47,11.30
2016,02,25,14,48,11.30
2016,02,25,14,49,8.10
2016,02,25,14,50,11.30
2016,02,25,14,51,9.60
2016,02,25,14,52,8.10
2016,02,25,14,53,11.30
2016,02,25,14,54,9.60
2016,02,25,14,55,11.30
2016,02,25,14,56,14.50
2016,02,25,14,57,11.30
2016,02,25,14,58,9.60
2016,02,25,14,59,8.10
2016,02,25,15,00,8.10
2016,02,25,15,01,11.30
2016,02,25,15,02,16.10
2016,02,25,15,03,11.30
2016,02,25,15,04,9.60
2016,02,25,15,05,9.60
2016,02,25,15,06,14.50
2016,02,25,15,07,11.30
2016,02,25,15,08,14.50
2016,02,25,15,09,9.60
2016,02,25,15,10,8.10
2016,02,25,15,11,8.10
2016,02,25,15,12,8.10
2016,02,25,15,13,8.10
2016,02,25,15,14,9.60
2016,02,25,15,15,6.40
2016,02,25,15,16,6.40
2016,02,25,15,17,11.30
2016,02,25,15,18,4.80
2016,02,25,15,19,8.10
2016,02,25,15,20,8.10
2016,02,25,15,21,6.40
2016,02,25,15,22,6.40
2016,02,25,15,23,6.40
2016,02,25,15,24,4.80
2016,02,25,15,25,6.40
2016,02,25,15,26,4.80
2016,02,25,15,27,6.40
2016,02,25,15,28,4.80
2016,02,25,15,29,8.10
2016,02,25,15,30,4.80
2016,02,25,15,31,6.40
2016,02,25,15,32,6.40
2016,02,25,15,33,3.20
2016,02,25,15,34,1.60
2016,02,25,15,35,6.40
2016,02,25,15,36,6.40
2016,02,25,15,37,8.10
2016,02,25,15,38,4.80
2016,02,25,15,39,6.40
2016,02,25,15,40,9.60
2016,02,25,15,41,11.30
2016,02,25,15,42,8.10
2016,02,25,15,43,8.10
2016,02,25,15,44,4.80
2016,02,25,15,45,8.10
2016,02,25,15,46,6.40
2016,02,25,15,47,8.10
2016,02,25,15,48,8.10
2016,02,25,15,49,6.40
2016,02,25,15,50,3.20
2016,02,25,15,51,8.10
2016,02,25,15,52,8.10
2016,02,25,15,53,9.60
2016,02,25,15,54,8.10
2016,02,25,15,55,11.30
2016,02,25,15,56,11.30
2016,02,25,15,57,4.80
2016,02,25,15,58,6.40
2016,02,25,15,59,4.80
2016,02,25,16,00,6.40
2016,02,25,16,01,6.40
2016,02,25,16,02,1.60
2016,02,25,16,03,4.80
2016,02,25,16,04,3.20
2016,02,25,16,05,3.20
2016,02,25,16,06,4.80
2016,02,25,16,07,3.20
2016,02,25,16,08,6.40
2016,02,25,16,09,4.80
2016,02,25,16,10,3.20
2016,02,25,16,11,4.80
2016,02,25,16,12,1.60
2016,02,25,16,13,4.80
2016,02,25,16,14,6.40
2016,02,25,16,15,6.40
2016,02,25,16,16,8.10
2016,02,25,16,17,6.40
2016,02,25,16,18,6.40
2016,02,25,16,19,9.60
2016,02,25,16,20,8.10
2016,02,25,16,21,6.40
2016,02,25,16,22,9.60
2016,02,25,16,23,8.10
2016,02,25,16,24,6.40
2016,02,25,16,25,6.40
2016,02,25,16,26,4.80
2016,02,25,16,27,3.20
2016,02,25,16,28,8.10
2016,02,25,16,29,8.10
2016,02,25,16,30,6.40
2016,02,25,16,31,6.40
2016,02,25,16,32,6.40
2016,02,25,16,33,4.80
2016,02,25,16,34,4.80
2016,02,25,16,35,9.60
2016,02,25,16,36,8.10
2016,02,25,16,37,4.80
2016,02,25,16,38,4.80
2016,02,25,16,39,3.20
2016,02,25,16,40,9.60
2016,02,25,16,41,6.40
2016,02,25,16,42,4.80
2016,02,25,16,43,3.20
2016,02,25,16,44,4.80
2016,02,25,16,45,3.20
2016,02,25,16,46,3.20
2016,02,25,16,47,1.60
2016,02,25,16,48,6.40
2016,02,25,16,49,6.40
2016,02,25,16,50,3.20
2016,02,25,16,51,6.40
2016,02,25,16,52,6.40
2016,02,25,16,53,6.40
2016,02,25,16,54,6.40
2016,02,25,16,55,6.40
2016,02,25,16,56,4.80
2016,02,25,16,57,4.80
2016,02,25,16,58,4.80
2016,02,25,16,59,4.80
2016,02,25,17,00,4.80
2016,02,25,17,01,6.40
2016,02,25,17,02,4.80
2016,02,25,17,03,4.80
2016,02,25,17,04,4.80
2016,02,25,17,05,3.20
2016,02,25,17,06,3.20
2016,02,25,17,07,3.20
2016,02,25,17,08,1.60
2016,02,25,17,09,1.60
2016,02,25,17,10,3.20
2016,02,25,17,11,1.60
2016,02,25,17,12,1.60
2016,02,25,17,13,3.20
2016,02,25,17,14,3.20
2016,02,25,17,15,3.20
2016,02,25,17,16,6.40
2016,02,25,17,17,3.20
2016,02,25,17,18,1.60
2016,02,25,17,19,1.60
2016,02,25,17,20,3.20
2016,02,25,17,21,3.20
2016,02,25,17,22,3.20
2016,02,25,17,23,3.20
2016,02,25,17,24,1.60
2016,02,25,17,25,3.20
2016,02,25,17,55,3.20
2016,02,25,17,56,1.60
2016,02,25,17,57,1.60
2016,02,25,17,59,3.20
2016,02,25,18,00,3.20
2016,02,25,19,12,1.60
2016,02,25,19,13,1.60
2016,02,25,19,19,1.60
2016,02,25,20,20,1.60
2016,02,25,20,21,1.60
2016,02,25,20,22,1.60
2016,02,25,20,29,3.20
2016,02,25,20,30,3.20
2016,02,25,20,31,1.60
2016,02,25,20,32,1.60
2016,02,25,20,33,1.60
2016,02,25,20,37,1.60
2016,02,25,20,38,1.60
2016,02,25,20,39,1.60
2016,02,25,20,40,1.60
2016,02,25,20,47,1.60
2016,02,25,20,48,1.60
2016,02,25,20,49,3.20
2016,02,25,20,50,3.20
2016,02,25,20,51,3.20
2016,02,25,20,52,1.60
2016,02,25,21,03,1.60
2016,02,25,21,10,1.60
2016,02,25,21,19,1.60
2016,02,25,21,20,1.60
2016,02,25,22,05,1.60
2016,02,25,22,09,1.60
2016,02,25,22,10,1.60
2016,02,25,22,11,1.60
2016,02,25,22,12,1.60
2016,02,25,22,19,1.60
2016,02,25,22,21,1.60
2016,02,25,22,22,1.60
2016,02,25,22,23,1.60
2016,02,25,22,58,1.60
2016,02,25,22,59,1.60
2016,02,25,23,18,1.60
2016,02,25,23,19,1.60
2016,02,25,23,20,3.20
2016,02,25,23,25,1.60
2016,02,25,23,26,1.60
2016,02,25,23,35,1.60
2016,02,25,23,36,3.20
2016,02,25,23,39,1.60
2016,02,25,23,46,1.60
2016,02,25,23,47,1.60
2016,02,25,23,48,3.20
2016,02,25,23,49,1.60
2016,02,25,23,50,1.60
